FENGYUN 1C DEB

Satellite information

Favourite Embed

Satellite Type and Status

DEBRISIN ORBIT

Key statistics

Satellite FENGYUN 1C DEB at a glance.

Uptime

9554

Days in orbit

Revolutions

≈ 14.3

Per day

Orbit

SSO

Sun Synchronous Orbit

Inclination

98.3

Latest

Satellite identification and parameters

Extended collection of information and parameters for FENGYUN 1C DEB.

Object identification

Identified? True

Debris? True

Object name: FENGYUN 1C DEB

International designator: 1999-025DTY

Object number (NORAD): 36199

Object ID (CCSDS): 36199

Country: PEOPLES REPUBLIC OF CHINA (PRC)

Current information (Y/N): Y

RCS size: SMALL

Orbital parameters

Period: 100.744 minutes

Inclination: 98.3032 deg

SMA: 7171.968 km

Apoapsis: 860.087 km

Periapsis: 727.579 km

RAAN: 214.744 deg

Eccentricy: 0.0092379

Argument of periapsis: 182.1609 deg

Mean anomaly: 177.9188 deg

Mean motion: 14.29372014 rev/day

Mean motion (dot): 0.00000439 rev/day2

B* drag term: 0.00017972 1/REarth

Two-line elements (TLE)

Creation date: July 5, 2025, 5:45 p.m.

Reference frame: TEME

Reference center: EARTH

Epoch: July 5, 2025, 12:52 a.m. UTC

TLE line 0: 0 FENGYUN 1C DEB

TLE line 1: 1 36199U 99025DTY 25186.03660447 .00000439 00000-0 17972-3 0 9990

TLE line 2: 2 36199 98.3032 214.7440 0092379 182.1609 177.9188 14.29372014626844

Live tracking on map

Real-time ground track for satellite FENGYUN 1C DEB.

In-orbit conjunctions

A list of the most updated potential collisions computed for object FENGYUN 1C DEB.

Target Orbit TCA Probability of collision Miss distance Type
PSLV DEB SSO 2025-07-08 20:38:57 0.0001769896 362.0 (m) DEBRIS

Associated space launch

Chinese polar orbiting meteorological satellite

FENGYUN 1C DEB was lifted into orbit during the mission ‘Long March 4B | Feng Yun 1C’, on board a Long March 4B space rocket.

The launch took place on May 10, 1999, 1:33 a.m. from Launch Complex 7.

For more information about the launch, click the button.

Launch to space Long March 4B | Feng Yun 1C
Long March 4B | Feng Yun 1C

Agency: N/A

Status: Launch Successful

Launch date: May 10, 1999, 1:33 a.m. UTC

Rocket: Long March 4B

Launch pad: Launch Complex 7

Location: Taiyuan Satellite Launch Center, People's Republic of China

...

Latest news about this satellite

There are no fresh news available about this satellite. Check back as we update our databases every day.


Newsletter sign-up

Weekly statistics, charts and insights to help you stay on top of the space industry.